Time,TemperatureF,DewpointF,PressureIn,WindDirection,WindDirectionDegrees,WindSpeedMPH,WindSpeedGustMPH,Humidity,HourlyPrecipIn,Conditions,Clouds,dailyrainin,SoftwareType,DateUTC
2013-10-07 00:02:00,71.8,68.0,29.86,SE,145,0.0,1.0,88,0.00,,,0.00,weatherlink.com 1.10,2013-10-07 04:02:00,
2013-10-07 00:17:00,72.0,68.0,29.86,SE,140,0.0,2.0,88,0.00,,,0.00,weatherlink.com 1.10,2013-10-07 04:17:00,
2013-10-07 00:32:00,72.0,69.0,29.86,SSE,155,0.0,1.0,90,0.00,,,0.00,weatherlink.com 1.10,2013-10-07 04:32:00,
2013-10-07 00:47:00,72.0,69.0,29.86,SSW,205,0.0,2.0,90,0.00,,,0.00,weatherlink.com 1.10,2013-10-07 04:47:00,
2013-10-07 01:02:00,72.0,69.0,29.85,South,178,0.0,2.0,91,0.00,,,0.00,weatherlink.com 1.10,2013-10-07 05:02:00,
2013-10-07 01:17:00,72.0,69.0,29.85,SSE,154,0.0,3.0,91,0.00,,,0.00,weatherlink.com 1.10,2013-10-07 05:17:00,
2013-10-07 01:32:00,72.1,69.0,29.84,SE,143,0.0,2.0,91,0.00,,,0.00,weatherlink.com 1.10,2013-10-07 05:32:00,
2013-10-07 01:47:00,72.1,69.0,29.84,ESE,123,0.0,2.0,91,0.00,,,0.00,weatherlink.com 1.10,2013-10-07 05:47:00,
2013-10-07 02:02:00,72.1,69.0,29.84,ESE,113,0.0,7.0,91,0.00,,,0.00,weatherlink.com 1.10,2013-10-07 06:02:00,
2013-10-07 02:17:00,72.1,69.0,29.84,SW,234,0.0,4.0,90,0.00,,,0.00,weatherlink.com 1.10,2013-10-07 06:17:00,
2013-10-07 02:32:00,72.1,69.0,29.83,South,169,0.0,3.0,90,0.00,,,0.00,weatherlink.com 1.10,2013-10-07 06:32:00,
2013-10-07 02:47:00,72.1,69.0,29.83,SSE,167,0.0,3.0,90,0.00,,,0.00,weatherlink.com 1.10,2013-10-07 06:47:00,
2013-10-07 03:02:00,72.1,69.0,29.82,SSE,156,0.0,4.0,90,0.00,,,0.00,weatherlink.com 1.10,2013-10-07 07:02:00,
2013-10-07 03:17:00,72.1,69.0,29.81,SE,138,0.0,5.0,90,0.00,,,0.00,weatherlink.com 1.10,2013-10-07 07:17:00,
2013-10-07 03:32:00,72.1,69.0,29.81,South,180,0.0,3.0,90,0.00,,,0.00,weatherlink.com 1.10,2013-10-07 07:32:00,
2013-10-07 03:47:00,72.3,69.0,29.80,SE,146,1.0,2.0,90,0.00,,,0.00,weatherlink.com 1.10,2013-10-07 07:47:00,
2013-10-07 04:02:00,72.3,69.0,29.80,South,180,1.0,3.0,89,0.00,,,0.00,weatherlink.com 1.10,2013-10-07 08:02:00,
2013-10-07 04:17:00,72.3,69.0,29.80,SE,145,0.0,2.0,90,0.00,,,0.00,weatherlink.com 1.10,2013-10-07 08:17:00,
2013-10-07 04:32:00,72.3,69.0,29.80,South,181,0.0,3.0,90,0.00,,,0.00,weatherlink.com 1.10,2013-10-07 08:32:00,
2013-10-07 04:48:00,72.1,70.0,29.80,SE,144,0.0,1.0,92,0.01,,,0.01,weatherlink.com 1.10,2013-10-07 08:48:00,
2013-10-07 05:03:00,71.8,70.0,29.80,SE,144,0.0,1.0,93,0.01,,,0.01,weatherlink.com 1.10,2013-10-07 09:03:00,
2013-10-07 05:18:00,71.6,70.0,29.79,South,171,0.0,2.0,94,0.01,,,0.01,weatherlink.com 1.10,2013-10-07 09:18:00,
2013-10-07 05:33:00,71.5,70.0,29.79,SSE,159,0.0,6.0,94,0.01,,,0.01,weatherlink.com 1.10,2013-10-07 09:33:00,
2013-10-07 05:48:00,71.5,70.0,29.78,SSE,168,0.0,1.0,95,0.00,,,0.01,weatherlink.com 1.10,2013-10-07 09:48:00,
2013-10-07 06:03:00,71.5,70.0,29.78,SSW,196,0.0,6.0,95,0.00,,,0.01,weatherlink.com 1.10,2013-10-07 10:03:00,
2013-10-07 06:18:00,71.3,70.0,29.78,North,350,0.0,1.0,95,0.00,,,0.01,weatherlink.com 1.10,2013-10-07 10:18:00,
2013-10-07 06:33:00,71.3,70.0,29.79,West,273,0.0,2.0,96,0.00,,,0.01,weatherlink.com 1.10,2013-10-07 10:33:00,
2013-10-07 06:48:00,71.3,70.0,29.80,South,185,0.0,2.0,96,0.00,,,0.01,weatherlink.com 1.10,2013-10-07 10:48:00,
2013-10-07 07:03:00,71.3,70.0,29.80,WSW,239,0.0,2.0,96,0.00,,,0.01,weatherlink.com 1.10,2013-10-07 11:03:00,
2013-10-07 07:18:00,71.5,70.0,29.80,SSE,167,0.0,3.0,96,0.00,,,0.01,weatherlink.com 1.10,2013-10-07 11:18:00,
2013-10-07 07:33:00,71.5,70.0,29.80,SSE,167,0.0,3.0,96,0.00,,,0.01,weatherlink.com 1.10,2013-10-07 11:33:00,
2013-10-07 07:48:00,71.5,70.0,29.80,SE,142,0.0,2.0,96,0.00,,,0.01,weatherlink.com 1.10,2013-10-07 11:48:00,
2013-10-07 08:03:00,71.5,70.0,29.81,ESE,103,0.0,3.0,96,0.00,,,0.01,weatherlink.com 1.10,2013-10-07 12:03:00,
2013-10-07 08:18:00,71.6,70.0,29.81,South,169,0.0,5.0,96,0.00,,,0.01,weatherlink.com 1.10,2013-10-07 12:18:00,
2013-10-07 08:33:00,71.6,70.0,29.82,SE,138,0.0,1.0,96,0.00,,,0.01,weatherlink.com 1.10,2013-10-07 12:33:00,
2013-10-07 08:48:00,71.8,71.0,29.81,ESE,121,0.0,4.0,96,0.00,,,0.01,weatherlink.com 1.10,2013-10-07 12:48:00,
2013-10-07 09:03:00,71.6,70.0,29.82,East,94,1.0,5.0,96,0.00,,,0.01,weatherlink.com 1.10,2013-10-07 13:03:00,
2013-10-07 09:18:00,70.3,69.0,29.83,ENE,67,0.0,1.0,96,0.00,,,0.01,weatherlink.com 1.10,2013-10-07 13:18:00,
2013-10-07 09:33:00,69.8,69.0,29.83,ENE,67,0.0,0.0,96,0.00,,,0.01,weatherlink.com 1.10,2013-10-07 13:33:00,
2013-10-07 09:48:00,69.9,69.0,29.83,ENE,67,0.0,0.0,97,0.00,,,0.01,weatherlink.com 1.10,2013-10-07 13:48:00,
2013-10-07 10:03:00,70.1,69.0,29.83,ENE,67,0.0,0.0,97,0.00,,,0.01,weatherlink.com 1.10,2013-10-07 14:03:00,
2013-10-07 10:18:00,70.6,70.0,29.83,ESE,111,0.0,1.0,98,0.00,,,0.01,weatherlink.com 1.10,2013-10-07 14:18:00,
2013-10-07 10:33:00,70.6,70.0,29.83,ESE,111,0.0,1.0,97,0.00,,,0.01,weatherlink.com 1.10,2013-10-07 14:33:00,
2013-10-07 10:48:00,70.8,70.0,29.81,ESE,111,0.0,0.0,98,0.00,,,0.01,weatherlink.com 1.10,2013-10-07 14:48:00,
2013-10-07 11:03:00,71.1,71.0,29.83,ESE,111,0.0,0.0,98,0.00,,,0.01,weatherlink.com 1.10,2013-10-07 15:03:00,
2013-10-07 11:18:00,71.1,71.0,29.84,ESE,111,0.0,1.0,98,0.00,,,0.01,weatherlink.com 1.10,2013-10-07 15:18:00,
2013-10-07 11:33:00,71.3,71.0,29.83,SE,124,0.0,0.0,98,0.00,,,0.01,weatherlink.com 1.10,2013-10-07 15:33:00,
2013-10-07 11:48:00,71.5,71.0,29.82,ESE,123,1.0,1.0,97,0.00,,,0.01,weatherlink.com 1.10,2013-10-07 15:48:00,
2013-10-07 12:03:00,71.3,70.0,29.82,WSW,254,0.0,0.0,96,0.00,,,0.01,weatherlink.com 1.10,2013-10-07 16:03:00,
2013-10-07 12:18:00,72.3,71.0,29.82,WSW,254,0.0,0.0,96,0.00,,,0.01,weatherlink.com 1.10,2013-10-07 16:18:00,
2013-10-07 12:33:00,73.0,71.0,29.83,WSW,254,1.0,1.0,94,0.00,,,0.01,weatherlink.com 1.10,2013-10-07 16:33:00,
2013-10-07 12:48:00,73.7,71.0,29.83,South,190,0.0,1.0,90,0.00,,,0.01,weatherlink.com 1.10,2013-10-07 16:48:00,
2013-10-07 13:03:00,74.2,70.0,29.83,SSE,158,0.0,4.0,85,0.00,,,0.01,weatherlink.com 1.10,2013-10-07 17:03:00,
2013-10-07 13:18:00,74.4,71.0,29.82,SSE,158,0.0,0.0,88,0.00,,,0.01,weatherlink.com 1.10,2013-10-07 17:18:00,
2013-10-07 13:33:00,74.4,71.0,29.82,SSE,158,0.0,0.0,88,0.00,,,0.01,weatherlink.com 1.10,2013-10-07 17:33:00,
2013-10-07 13:48:00,75.1,70.0,29.81,WNW,284,0.0,1.0,85,0.00,,,0.01,weatherlink.com 1.10,2013-10-07 17:48:00,
2013-10-07 14:03:00,76.0,69.0,29.81,WNW,285,0.0,1.0,80,0.00,,,0.01,weatherlink.com 1.10,2013-10-07 18:03:00,
2013-10-07 14:18:00,76.3,70.0,29.80,WNW,285,0.0,0.0,82,0.00,,,0.01,weatherlink.com 1.10,2013-10-07 18:18:00,
2013-10-07 14:33:00,76.1,70.0,29.80,WNW,285,0.0,0.0,82,0.00,,,0.01,weatherlink.com 1.10,2013-10-07 18:33:00,
2013-10-07 14:48:00,76.1,71.0,29.80,WNW,285,0.0,0.0,84,0.00,,,0.01,weatherlink.com 1.10,2013-10-07 18:48:00,
2013-10-07 15:03:00,75.6,71.0,29.80,WNW,285,0.0,0.0,86,0.00,,,0.01,weatherlink.com 1.10,2013-10-07 19:03:00,
2013-10-07 15:18:00,75.4,71.0,29.81,WNW,285,0.0,0.0,87,0.00,,,0.01,weatherlink.com 1.10,2013-10-07 19:18:00,
2013-10-07 15:33:00,75.4,71.0,29.80,WNW,285,0.0,0.0,87,0.00,,,0.01,weatherlink.com 1.10,2013-10-07 19:33:00,
2013-10-07 15:48:00,75.4,71.0,29.80,WNW,285,0.0,0.0,87,0.00,,,0.01,weatherlink.com 1.10,2013-10-07 19:48:00,
2013-10-07 16:03:00,75.3,71.0,29.80,WNW,285,0.0,0.0,87,0.00,,,0.01,weatherlink.com 1.10,2013-10-07 20:03:00,
2013-10-07 16:18:00,75.3,71.0,29.80,WNW,285,0.0,0.0,85,0.00,,,0.01,weatherlink.com 1.10,2013-10-07 20:18:00,
2013-10-07 16:33:00,75.4,71.0,29.80,WNW,285,0.0,0.0,85,0.00,,,0.01,weatherlink.com 1.10,2013-10-07 20:33:00,
2013-10-07 16:48:00,75.6,70.0,29.80,WNW,285,0.0,1.0,83,0.00,,,0.01,weatherlink.com 1.10,2013-10-07 20:48:00,
2013-10-07 17:03:00,74.9,69.0,29.80,NE,42,0.0,1.0,82,0.00,,,0.01,weatherlink.com 1.10,2013-10-07 21:03:00,
2013-10-07 17:18:00,73.9,68.0,29.81,ENE,76,1.0,2.0,81,0.00,,,0.01,weatherlink.com 1.10,2013-10-07 21:18:00,
2013-10-07 17:33:00,73.0,68.0,29.81,ENE,70,2.0,4.0,83,0.00,,,0.01,weatherlink.com 1.10,2013-10-07 21:33:00,
2013-10-07 17:48:00,72.5,67.0,29.82,NE,50,0.0,1.0,82,0.00,,,0.01,weatherlink.com 1.10,2013-10-07 21:48:00,
2013-10-07 18:03:00,72.1,66.0,29.83,ENE,74,0.0,3.0,81,0.00,,,0.01,weatherlink.com 1.10,2013-10-07 22:03:00,
2013-10-07 18:18:00,71.5,65.0,29.83,ENE,63,0.0,6.0,79,0.00,,,0.01,weatherlink.com 1.10,2013-10-07 22:18:00,
2013-10-07 18:33:00,71.3,64.0,29.84,NE,48,0.0,5.0,78,0.00,,,0.01,weatherlink.com 1.10,2013-10-07 22:33:00,
2013-10-07 18:48:00,70.9,64.0,29.85,NE,44,0.0,2.0,79,0.00,,,0.01,weatherlink.com 1.10,2013-10-07 22:48:00,
2013-10-07 19:03:00,70.4,64.0,29.84,WNW,300,0.0,3.0,80,0.00,,,0.01,weatherlink.com 1.10,2013-10-07 23:03:00,
2013-10-07 19:18:00,69.9,61.0,29.85,ENE,59,0.0,4.0,73,0.00,,,0.01,weatherlink.com 1.10,2013-10-07 23:18:00,
2013-10-07 19:33:00,69.6,59.0,29.86,NE,55,0.0,3.0,69,0.00,,,0.01,weatherlink.com 1.10,2013-10-07 23:33:00,
2013-10-07 19:48:00,69.1,59.0,29.86,NNW,346,0.0,2.0,69,0.00,,,0.01,weatherlink.com 1.10,2013-10-07 23:48:00,
2013-10-07 20:03:00,68.6,58.0,29.87,WNW,289,3.0,4.0,69,0.00,,,0.01,weatherlink.com 1.10,2013-10-08 00:03:00,
2013-10-07 20:19:00,68.1,57.0,29.88,ESE,119,0.0,4.0,68,0.00,,,0.01,weatherlink.com 1.10,2013-10-08 00:19:00,
2013-10-07 20:34:00,67.8,58.0,29.88,East,80,0.0,5.0,70,0.00,,,0.01,weatherlink.com 1.10,2013-10-08 00:34:00,
2013-10-07 20:49:00,67.6,57.0,29.89,NE,40,0.0,3.0,70,0.00,,,0.01,weatherlink.com 1.10,2013-10-08 00:49:00,
2013-10-07 21:04:00,67.3,57.0,29.90,ENE,69,0.0,4.0,70,0.00,,,0.01,weatherlink.com 1.10,2013-10-08 01:04:00,
2013-10-07 21:19:00,66.9,56.0,29.91,ENE,63,0.0,4.0,69,0.00,,,0.01,weatherlink.com 1.10,2013-10-08 01:19:00,
2013-10-07 21:34:00,66.6,56.0,29.91,North,5,0.0,3.0,69,0.00,,,0.01,weatherlink.com 1.10,2013-10-08 01:34:00,
2013-10-07 21:49:00,66.6,56.0,29.92,ENE,66,0.0,4.0,68,0.00,,,0.01,weatherlink.com 1.10,2013-10-08 01:49:00,
2013-10-07 22:04:00,66.4,55.0,29.93,West,259,0.0,6.0,66,0.00,,,0.01,weatherlink.com 1.10,2013-10-08 02:04:00,
2013-10-07 22:19:00,66.3,54.0,29.93,NE,47,0.0,7.0,64,0.00,,,0.01,weatherlink.com 1.10,2013-10-08 02:19:00,
2013-10-07 22:34:00,66.3,54.0,29.94,ENE,78,0.0,2.0,64,0.00,,,0.01,weatherlink.com 1.10,2013-10-08 02:34:00,
2013-10-07 22:49:00,66.3,54.0,29.94,ENE,66,1.0,5.0,64,0.00,,,0.01,weatherlink.com 1.10,2013-10-08 02:49:00,
2013-10-07 23:04:00,66.1,53.0,29.94,West,265,0.0,8.0,62,0.00,,,0.01,weatherlink.com 1.10,2013-10-08 03:04:00,
2013-10-07 23:19:00,66.1,53.0,29.95,ENE,75,0.0,5.0,62,0.00,,,0.01,weatherlink.com 1.10,2013-10-08 03:19:00,
2013-10-07 23:34:00,66.0,52.0,29.95,NNE,14,0.0,7.0,62,0.00,,,0.01,weatherlink.com 1.10,2013-10-08 03:34:00,
2013-10-07 23:49:00,65.6,52.0,29.95,NNW,330,0.0,4.0,62,0.00,,,0.01,weatherlink.com 1.10,2013-10-08 03:49:00,